Location: Monrovia
(34.7865°N, 86.7139°W)
Time: 00:54:22
(UTC+00:00)

H-2A R/B - Pass Details

Date: 14 July 2020
Orbit: 577 x 656 km, 98.5° (Epoch: 12 August)

Event Time Altitude Azimuth Distance (km) Brightness Sun altitude
Rises 08:29:18 0° 136° (SE) 2,936 5.5 -22.5°
Reaches altitude 10° 08:31:50 10° 123° (ESE) 2,019 4.8 -22.2°
Maximum altitude 08:35:20 24° 70° (ENE) 1,315 4.4 -21.7°
Drops below altitude 10° 08:38:48 10° 17° (NNE) 1,991 5.6 -21.2°
Sets 08:41:17 0° 3° (N) 2,886 6.3 -20.9°
